This is the latest recevied weather packets stored in our database for station/object OM6ABF-11. If no packets are shown the sender has not sent any weather packets the latest 10 day(s).
| Time | Temp. | Humidity | Pressure | Rain* | Wind** | Luminosity | Snow |
|---|---|---|---|---|---|---|---|
| 1777560479 | 13.33° C | 21% | 1027 hPa | - | - | - | - |
| 1777559581 | 13.33° C | 22% | 1027 hPa | - | - | - | - |
| 1777558681 | 13.33° C | 22% | 1026.9 hPa | - | - | - | - |
| 1777557782 | 13.89° C | 24% | 1027 hPa | - | - | - | - |
| 1777556883 | 13.89° C | 23% | 1027.1 hPa | - | - | - | - |
| 1777555985 | 16.11° C | 20% | 1027.2 hPa | - | - | - | - |
| 1777555085 | 13.89° C | 21% | 1027.5 hPa | - | - | - | - |
| 1777554185 | 13.89° C | 23% | 1027.6 hPa | - | - | - | - |
| 1777553285 | 12.78° C | 25% | 1027.9 hPa | - | - | - | - |
| 1777552386 | 14.44° C | 22% | 1027.9 hPa | - | - | - | - |
| 1777551486 | 12.78° C | 23% | 1028.2 hPa | - | - | - | - |
| 1777550587 | 13.89° C | 24% | 1028.3 hPa | - | - | - | - |
| 1777549686 | 13.33° C | 22% | 1028.4 hPa | - | - | - | - |
| 1777548786 | 13.89° C | 22% | 1028.5 hPa | - | - | - | - |
| 1777547885 | 12.78° C | 26% | 1028.7 hPa | - | - | - | - |
| 1777546985 | 12.78° C | 26% | 1028.8 hPa | - | - | - | - |
| 1777546084 | 13.33° C | 23% | 1028.8 hPa | - | - | - | - |
| 1777545185 | 10° C | 28% | 1029.2 hPa | - | - | - | - |
| 1777544286 | 11.67° C | 25% | 1029.2 hPa | - | - | - | - |
| 1777543387 | 8.89° C | 29% | 1029.3 hPa | - | - | - | - |
| 1777542488 | 8.33° C | 30% | 1029.5 hPa | - | - | - | - |
| 1777541587 | 8.33° C | 30% | 1029.5 hPa | - | - | - | - |
| 1777540687 | 8.33° C | 30% | 1029.4 hPa | - | - | - | - |
| 1777539787 | 7.22° C | 31% | 1029.6 hPa | - | - | - | - |
| 1777538887 | 7.22° C | 31% | 1029.8 hPa | - | - | - | - |
* Rain since midnight (hover to see other rain measurements)
** Current wind speed in m/s (hover to see current wind gust speed)